Location: Alsip
(41.6689°N, 87.7387°W)
Time: 15:11:21
(UTC+00:00)

Cosmos 1697 Rocket - Pass Details

Date: 14 July 2020
Orbit: 834 x 842 km, 71.0° (Epoch: 13 August)

Event Time Altitude Azimuth Distance (km) Brightness Sun altitude
Rises 08:57:38 0° 326° (NW) 3,393 6.0 -14.2°
Reaches altitude 10° 09:00:20 10° 316° (NW) 2,453 5.2 -13.8°
Maximum altitude 09:05:10 31° 256° (WSW) 1,440 3.5 -13.2°
Enters shadow 09:08:51 15° 204° (SSW) 2,080 4.2 -12.7°
